Breckenridge, CO

12:44 PM MST on February 06, 2016 (GMT -0700)
Copper Mountain

Weather History for KCCU - January, 2014

Change the Weather History Date:

Friday, January 10, 2014

  Actual Average Record
Temperature  
Mean Temperature 10 °F -  
Max Temperature 14 °F - 33 °F (2004)
Min Temperature 5 °F - -7 °F (2011)
Degree Days  
Heating Degree Days 56    
Month to date heating degree days  
Cooling Degree Days 0    
Month to date cooling degree days  
Moisture  
Dew Point 3 °F    
Average Humidity 74    
Maximum Humidity 79    
Minimum Humidity 66    
Precipitation  
Precipitation 0.00 in - 0.21 in (2002)
Sea Level Pressure  
Sea Level Pressure 29.73 in    
Wind  
Wind Speed 33 mph (West)    
Max Wind Speed 46 mph    
Max Gust Speed 61 mph    
Visibility 1 miles    
Events Snow    
T = Trace of Precipitation, MM = Missing Value Source: NWS Daily Summary

Daily Weather History Graph

Daily Weather History Graph

Search for Another Location

Airport or City:

Trip Planner

Search our weather history database for the weather conditions in past years. The results will help you decide how hot, cold, wet, or windy it might be!

Date:

Astronomy

Jan. 10, 2014 Rise Set
Actual Time 7:24 AM MST 5:00 PM MST
Civil Twilight 6:54 AM MST 5:29 PM MST
Nautical Twilight 6:21 AM MST 6:03 PM MST
Astronomical Twilight 5:49 AM MST 6:35 PM MST
Moon 1:05 PM MST (1/10) 2:35 AM MST (1/10)
Length of Visible Light 10h 35m
Length of Day
9h 35m
Waxing Gibbous, 75% of the Moon is Illuminated
Jan 10
Waxing Gibbous
Jan 15
Full
Jan 23
Last Quarter
Jan 30
New
Feb 6
First Quarter

Hourly Weather History & Observations

Time (MST) Temp. Windchill Dew Point Humidity Pressure Visibility Wind Dir Wind Speed Gust Speed Precip Events Conditions
12:16 AM 8.6 °F -12.3 °F 1.4 °F 73% 29.67 in - West 24.2 mph - N/A   Overcast
12:36 AM 8.6 °F -15.4 °F 1.4 °F 73% 29.66 in - West 34.5 mph - N/A   Overcast
12:56 AM 8.6 °F -16.3 °F -0.4 °F 67% 29.65 in 0.5 mi West 38.0 mph - N/A Snow Snow
1:16 AM 6.8 °F -18.2 °F -0.4 °F 72% 29.66 in 0.5 mi West 35.7 mph 49.5 mph N/A Snow Heavy Snow
1:36 AM 6.8 °F -14.7 °F -0.4 °F 72% 29.66 in 0.5 mi West 24.2 mph 41.4 mph N/A Snow Snow
1:56 AM 6.8 °F -19.6 °F -0.4 °F 72% 29.64 in 0.8 mi West 41.4 mph 50.6 mph N/A Snow Snow
2:15 AM 5.0 °F -21.6 °F -0.4 °F 78% 29.66 in 1.0 mi West 39.1 mph 49.5 mph N/A Snow Light Snow
2:36 AM 5.0 °F -19.0 °F -0.4 °F 78% 29.67 in 1.0 mi West 29.9 mph 43.7 mph N/A Snow Light Snow
2:56 AM 5.0 °F -20.1 °F -2.2 °F 72% 29.66 in 1.0 mi West 33.4 mph 42.6 mph N/A Snow Light Snow
3:16 AM 5.0 °F -20.1 °F -2.2 °F 72% 29.65 in 1.0 mi West 33.4 mph 43.7 mph N/A Snow Light Snow
3:36 AM 5.0 °F -20.4 °F -4.0 °F 66% 29.63 in 0.5 mi West 34.5 mph 51.8 mph N/A Snow Snow
3:56 AM 5.0 °F -21.6 °F -4.0 °F 66% 29.66 in 0.5 mi West 39.1 mph 55.2 mph N/A Snow Snow
4:16 AM 5.0 °F -19.4 °F -4.0 °F 66% 29.66 in 1.0 mi West 31.1 mph 47.2 mph N/A Snow Light Snow
4:36 AM 5.0 °F -18.7 °F -4.0 °F 66% 29.65 in 0.8 mi West 28.8 mph 50.6 mph N/A Snow Light Snow
4:56 AM 5.0 °F -19.4 °F -4.0 °F 66% 29.68 in 1.5 mi West 31.1 mph 44.9 mph N/A Snow Light Snow
5:16 AM 5.0 °F -19.0 °F -4.0 °F 66% 29.67 in 1.5 mi West 29.9 mph 44.9 mph N/A Snow Light Snow
5:36 AM 5.0 °F -19.4 °F -4.0 °F 66% 29.66 in 1.5 mi West 31.1 mph 41.4 mph N/A Snow Light Snow
5:56 AM 5.0 °F -20.1 °F -4.0 °F 66% 29.65 in 1.2 mi West 33.4 mph 44.9 mph N/A Snow Light Snow
6:16 AM 5.0 °F -20.1 °F -4.0 °F 66% 29.65 in 1.5 mi West 33.4 mph 44.9 mph N/A Snow Light Snow
6:36 AM 5.0 °F -19.0 °F -4.0 °F 66% 29.66 in 0.8 mi West 29.9 mph 44.9 mph N/A Snow Snow
6:56 AM 5.0 °F -20.4 °F -4.0 °F 66% 29.66 in 0.8 mi West 34.5 mph 44.9 mph N/A Snow Snow
7:16 AM 5.0 °F -20.1 °F -4.0 °F 66% 29.67 in 0.8 mi West 33.4 mph 41.4 mph N/A Snow Snow
7:36 AM 5.0 °F -20.7 °F -2.2 °F 72% 29.67 in 0.2 mi West 35.7 mph 44.9 mph N/A Snow Heavy Snow
7:56 AM 5.0 °F -19.7 °F -2.2 °F 72% 29.69 in 0.2 mi West 32.2 mph 43.7 mph N/A Snow Heavy Snow
8:16 AM 5.0 °F - -2.2 °F 72% 29.70 in 0.5 mi North - - N/A Snow Snow
8:36 AM 5.0 °F - -2.2 °F 72% 29.71 in 0.5 mi North - - N/A Snow Snow
8:56 AM 5.0 °F - -2.2 °F 72% 29.71 in - North - - N/A   Overcast
9:16 AM 5.0 °F - -2.2 °F 72% 29.71 in - North - - N/A   Overcast
9:36 AM 5.0 °F - -0.4 °F 78% 29.72 in - North - - N/A   Overcast
9:56 AM 5.0 °F - -0.4 °F 78% 29.73 in - North - - N/A   Overcast
10:16 AM 6.8 °F -14.3 °F -0.4 °F 72% 29.71 in - West 23.0 mph 26.5 mph N/A   Overcast
10:36 AM 6.8 °F -13.4 °F -0.4 °F 72% 29.71 in - West 20.7 mph 28.8 mph N/A   Overcast
10:56 AM 6.8 °F - -0.4 °F 72% 29.71 in - North - - N/A   Overcast
11:16 AM 8.6 °F -10.0 °F -0.4 °F 67% 29.71 in - West 18.4 mph - N/A   Overcast
11:36 AM 8.6 °F -11.9 °F 1.4 °F 73% 29.69 in - WNW 23.0 mph - N/A   Overcast
11:56 AM 12.2 °F -7.5 °F 5.0 °F 73% 29.68 in - West 24.2 mph 34.5 mph N/A   Overcast
12:16 PM 12.2 °F -11.0 °F 5.0 °F 73% 29.68 in - West 36.8 mph 55.2 mph N/A   Overcast
12:36 PM 12.2 °F -12.5 °F 5.0 °F 73% 29.66 in - West 43.7 mph 51.8 mph N/A   Overcast
12:56 PM 12.2 °F -11.6 °F 5.0 °F 73% 29.66 in - West 39.1 mph 59.8 mph N/A   Overcast
1:16 PM 12.2 °F -11.3 °F 5.0 °F 73% 29.66 in - West 38.0 mph 49.5 mph N/A   Overcast
1:36 PM 12.2 °F -11.3 °F 5.0 °F 73% 29.66 in - West 38.0 mph 55.2 mph N/A   Overcast
1:56 PM 12.2 °F -9.6 °F 5.0 °F 73% 29.67 in - West 31.1 mph 43.7 mph N/A Snow Heavy Snow
2:16 PM 12.2 °F -8.6 °F 5.0 °F 73% 29.68 in 0.2 mi West 27.6 mph 43.7 mph N/A Snow Heavy Snow
2:36 PM 12.2 °F -11.3 °F 5.0 °F 73% 29.67 in - West 38.0 mph 47.2 mph N/A   Overcast
2:56 PM 14.0 °F -8.3 °F 6.8 °F 73% 29.69 in - West 35.7 mph 55.2 mph N/A   Overcast
3:16 PM 12.2 °F -10.5 °F 5.0 °F 73% 29.69 in 0.2 mi WNW 34.5 mph 50.6 mph N/A Snow Heavy Snow
3:36 PM 12.2 °F -7.9 °F 6.8 °F 79% 29.72 in 0.2 mi West 25.3 mph 42.6 mph N/A Snow Heavy Snow
3:56 PM 14.0 °F -6.5 °F 8.6 °F 79% 29.72 in 0.2 mi West 28.8 mph 47.2 mph N/A Snow Heavy Snow
4:16 PM 14.0 °F -8.3 °F 8.6 °F 79% 29.72 in - West 35.7 mph 59.8 mph N/A   Overcast
4:36 PM 14.0 °F -8.8 °F 8.6 °F 79% 29.74 in - West 38.0 mph 50.6 mph N/A   Overcast
4:56 PM 14.0 °F -6.2 °F 8.6 °F 79% 29.75 in - West 27.6 mph 51.8 mph N/A   Overcast
5:16 PM 14.0 °F -7.7 °F 8.6 °F 79% 29.75 in - West 33.4 mph 43.7 mph N/A   Overcast
5:36 PM 14.0 °F -8.0 °F 8.6 °F 79% 29.76 in - West 34.5 mph 47.2 mph N/A   Overcast
5:56 PM 14.0 °F -6.2 °F 8.6 °F 79% 29.77 in - West 27.6 mph 51.8 mph N/A   Overcast
6:16 PM 14.0 °F -6.5 °F 8.6 °F 79% 29.78 in - West 28.8 mph 44.9 mph N/A   Overcast
6:36 PM 14.0 °F -8.3 °F 8.6 °F 79% 29.79 in - West 35.7 mph 47.2 mph N/A   Overcast
6:56 PM 14.0 °F -5.8 °F 8.6 °F 79% 29.80 in - West 26.5 mph 42.6 mph N/A   Overcast
7:16 PM 14.0 °F -9.6 °F 8.6 °F 79% 29.80 in - West 41.4 mph 49.5 mph N/A   Overcast
7:36 PM 14.0 °F -5.8 °F 8.6 °F 79% 29.82 in - West 26.5 mph 50.6 mph N/A   Overcast
7:56 PM 14.0 °F -7.4 °F 8.6 °F 79% 29.82 in - WNW 32.2 mph 52.9 mph N/A   Overcast
8:16 PM 14.0 °F -8.8 °F 8.6 °F 79% 29.82 in - West 38.0 mph 61.0 mph N/A   Overcast
8:36 PM 14.0 °F -9.1 °F 8.6 °F 79% 29.83 in - WNW 39.1 mph 50.6 mph N/A   Overcast
8:56 PM 14.0 °F -10.5 °F 8.6 °F 79% 29.83 in 0.2 mi West 46.0 mph 55.2 mph N/A Snow Heavy Snow
9:16 PM 14.0 °F -9.6 °F 8.6 °F 79% 29.87 in 0.2 mi West 41.4 mph 50.6 mph N/A Snow Heavy Snow
9:36 PM 14.0 °F -9.8 °F 8.6 °F 79% 29.87 in 0.2 mi West 42.6 mph 51.8 mph N/A Snow Heavy Snow
9:56 PM 14.0 °F -6.8 °F 8.6 °F 79% 29.90 in 0.2 mi West 29.9 mph 52.9 mph N/A Snow Snow
10:16 PM 14.0 °F -8.5 °F 8.6 °F 79% 29.91 in 0.2 mi West 36.8 mph 49.5 mph N/A Snow Snow
10:36 PM 14.0 °F -10.0 °F 8.6 °F 79% 29.93 in 0.2 mi West 43.7 mph 51.8 mph N/A Snow Snow
10:56 PM 14.0 °F -7.7 °F 8.6 °F 79% 29.93 in 0.2 mi West 33.4 mph 49.5 mph N/A Snow Snow
11:16 PM 14.0 °F -9.6 °F 8.6 °F 79% 29.93 in 0.2 mi West 41.4 mph 50.6 mph N/A Snow Heavy Snow
11:36 PM 14.0 °F -9.1 °F 8.6 °F 79% 29.95 in 0.2 mi West 39.1 mph 52.9 mph N/A Snow Heavy Snow
11:56 PM 14.0 °F -10.5 °F 8.6 °F 79% 29.95 in 0.2 mi West 46.0 mph 57.5 mph N/A Snow Heavy Snow